| time (UTC) | temp F | wind direction | speed MPH | gust MPH | rain 1hr in | rain 24hr in | rain mn in | humidity % | barometer mb |
| 20260506232242 | 71 | 297 | 15.0 | 17.0 | 0.00 | 0.00 | 0.00 | 29 | 1011.0 |
| 20260506231739 | 71 | 306 | 11.0 | 15.0 | 0.00 | 0.00 | 0.00 | 30 | 1010.9 |
| 20260506231238 | 71 | 278 | 12.0 | 16.0 | 0.00 | 0.00 | 0.00 | 29 | 1011.1 |
| 20260506230734 | 71 | 275 | 15.0 | 17.0 | 0.00 | 0.00 | 0.00 | 28 | 1011.0 |
| 20260506230231 | 72 | 283 | 15.0 | 16.0 | 0.00 | 0.00 | 0.00 | 29 | 1011.0 |
| 20260506225728 | 72 | 297 | 10.0 | 13.0 | 0.00 | 0.00 | 0.00 | 30 | 1011.2 |
| 20260506225225 | 71 | 340 | 14.0 | 17.0 | 0.00 | 0.00 | 0.00 | 29 | 1011.3 |
| 20260506224721 | 72 | 303 | 17.0 | 21.0 | 0.00 | 0.00 | 0.00 | 28 | 1011.6 |
| 20260506224218 | 72 | 286 | 19.0 | 22.0 | 0.00 | 0.00 | 0.00 | 29 | 1011.6 |
| 20260506223714 | 71 | 267 | 14.0 | 17.0 | 0.00 | 0.00 | 0.00 | 30 | 1011.6 |
| 20260506223210 | 71 | 285 | 21.0 | 24.0 | 0.00 | 0.00 | 0.00 | 29 | 1011.6 |
| 20260506222708 | 71 | 11 | 4.0 | 6.0 | 0.00 | 0.00 | 0.00 | 31 | 1011.8 |
| 20260506222203 | 70 | 85 | 2.0 | 2.0 | 0.00 | 0.00 | 0.00 | 31 | 1012.1 |
| 20260506221701 | 69 | 168 | 3.0 | 6.0 | 0.00 | 0.00 | 0.00 | 32 | 1011.9 |
| 20260506221159 | 68 | 298 | 7.0 | 9.0 | 0.00 | 0.00 | 0.00 | 31 | 1012.2 |
| 20260506220656 | 69 | 280 | 7.0 | 8.0 | 0.00 | 0.00 | 0.00 | 33 | 1012.4 |
| 20260506220150 | 68 | 47 | 1.0 | 2.0 | 0.00 | 0.00 | 0.00 | 34 | 1012.6 |
| 20260506215648 | 67 | 98 | 9.0 | 9.0 | 0.00 | 0.00 | 0.00 | 33 | 1012.6 |
| 20260506215143 | 66 | 95 | 8.0 | 9.0 | 0.00 | 0.00 | 0.00 | 35 | 1012.7 |
| 20260506214640 | 66 | 96 | 6.0 | 8.0 | 0.00 | 0.00 | 0.00 | 35 | 1012.8 |
| 20260506214137 | 66 | 70 | 9.0 | 10.0 | 0.00 | 0.00 | 0.00 | 34 | 1012.9 |
| 20260506213636 | 66 | 110 | 5.0 | 6.0 | 0.00 | 0.00 | 0.00 | 33 | 1013.0 |
| 20260506213132 | 66 | 82 | 4.0 | 5.0 | 0.00 | 0.00 | 0.00 | 35 | 1012.8 |
| 20260506212630 | 67 | 56 | 4.0 | 5.0 | 0.00 | 0.00 | 0.00 | 35 | 1013.0 |
| 20260506212124 | 65 | 89 | 7.0 | 9.0 | 0.00 | 0.00 | 0.00 | 35 | 1013.2 |
| 20260506211620 | 65 | 80 | 5.0 | 6.0 | 0.00 | 0.00 | 0.00 | 37 | 1013.2 |
| 20260506211117 | 65 | 92 | 5.0 | 8.0 | 0.00 | 0.00 | 0.00 | 36 | 1013.2 |
| 20260506210614 | 65 | 90 | 9.0 | 9.0 | 0.00 | 0.00 | 0.00 | 36 | 1013.4 |
| 20260506210110 | 65 | 88 | 10.0 | 11.0 | 0.00 | 0.00 | 0.00 | 35 | 1013.2 |
| 20260506205608 | 63 | 115 | 4.0 | 5.0 | 0.00 | 0.00 | 0.00 | 35 | 1013.6 |
| 20260506205103 | 63 | 76 | 8.0 | 9.0 | 0.00 | 0.00 | 0.00 | 36 | 1013.5 |
| 20260506204601 | 64 | 67 | 10.0 | 13.0 | 0.00 | 0.00 | 0.00 | 36 | 1013.9 |
| 20260506204057 | 64 | 79 | 6.0 | 8.0 | 0.00 | 0.00 | 0.00 | 36 | 1013.8 |
| 20260506203556 | 62 | 9 | 5.0 | 7.0 | 0.00 | 0.00 | 0.00 | 37 | 1013.9 |
| 20260506203052 | 62 | 80 | 11.0 | 13.0 | 0.00 | 0.00 | 0.00 | 35 | 1014.0 |
| 20260506202550 | 62 | 62 | 6.0 | 8.0 | 0.00 | 0.00 | 0.00 | 36 | 1014.0 |
| 20260506202046 | 62 | 73 | 9.0 | 10.0 | 0.00 | 0.00 | 0.00 | 37 | 1014.2 |
| 20260506201544 | 62 | 105 | 9.0 | 11.0 | 0.00 | 0.00 | 0.00 | 36 | 1014.2 |
| 20260506201040 | 61 | 114 | 7.0 | 8.0 | 0.00 | 0.00 | 0.00 | 37 | 1014.4 |
| 20260506200536 | 61 | 70 | 9.0 | 11.0 | 0.00 | 0.00 | 0.00 | 36 | 1014.4 |
| 20260506200033 | 60 | 103 | 10.0 | 10.0 | 0.00 | 0.00 | 0.00 | 37 | 1014.7 |
| 20260506195530 | 60 | 70 | 9.0 | 11.0 | 0.00 | 0.00 | 0.00 | 37 | 1014.8 |
| 20260506195026 | 60 | 96 | 10.0 | 15.0 | 0.00 | 0.00 | 0.00 | 37 | 1014.7 |
| 20260506194524 | 60 | 49 | 7.0 | 10.0 | 0.00 | 0.00 | 0.00 | 38 | 1014.8 |
| 20260506194020 | 59 | 93 | 10.0 | 13.0 | 0.00 | 0.00 | 0.00 | 38 | 1015.0 |
| 20260506193518 | 60 | 73 | 8.0 | 10.0 | 0.00 | 0.00 | 0.00 | 39 | 1015.4 |
| 20260506193015 | 58 | 73 | 7.0 | 9.0 | 0.00 | 0.00 | 0.00 | 38 | 1015.4 |
| 20260506192511 | 59 | 83 | 10.0 | 13.0 | 0.00 | 0.00 | 0.00 | 37 | 1015.4 |
| 20260506192007 | 58 | 97 | 11.0 | 13.0 | 0.00 | 0.00 | 0.00 | 35 | 1015.3 |
| 20260506191504 | 59 | 79 | 9.0 | 13.0 | 0.00 | 0.00 | 0.00 | 36 | 1015.5 |
| 20260506191001 | 58 | 80 | 9.0 | 10.0 | 0.00 | 0.00 | 0.00 | 37 | 1015.6 |
| 20260506190458 | 57 | 48 | 7.0 | 10.0 | 0.00 | 0.00 | 0.00 | 37 | 1015.9 |
| 20260506185954 | 57 | 96 | 7.0 | 10.0 | 0.00 | 0.00 | 0.00 | 37 | 1015.9 |
| 20260506185452 | 57 | 104 | 12.0 | 15.0 | 0.00 | 0.00 | 0.00 | 37 | 1016.1 |
| 20260506184948 | 57 | 77 | 9.0 | 13.0 | 0.00 | 0.00 | 0.00 | 36 | 1015.9 |
| 20260506184446 | 56 | 99 | 11.0 | 11.0 | 0.00 | 0.00 | 0.00 | 37 | 1016.3 |
| 20260506183943 | 56 | 88 | 9.0 | 11.0 | 0.00 | 0.00 | 0.00 | 38 | 1016.3 |
| 20260506183438 | 56 | 90 | 8.0 | 11.0 | 0.00 | 0.00 | 0.00 | 37 | 1016.7 |
| 20260506182935 | 55 | 21 | 9.0 | 11.0 | 0.00 | 0.00 | 0.00 | 36 | 1016.5 |
| 20260506182432 | 55 | 55 | 15.0 | 17.0 | 0.00 | 0.00 | 0.00 | 37 | 1016.5 |
| 20260506181930 | 55 | 92 | 9.0 | 10.0 | 0.00 | 0.00 | 0.00 | 38 | 1016.7 |
| 20260506181428 | 53 | 59 | 9.0 | 11.0 | 0.00 | 0.00 | 0.00 | 38 | 1016.8 |
| 20260506180924 | 53 | 35 | 6.0 | 8.0 | 0.00 | 0.00 | 0.00 | 41 | 1016.9 |
| 20260506180420 | 53 | 74 | 7.0 | 9.0 | 0.00 | 0.00 | 0.00 | 40 | 1017.0 |
| 20260506175917 | 52 | 85 | 10.0 | 11.0 | 0.00 | 0.00 | 0.00 | 37 | 1017.2 |
| 20260506175414 | 52 | 75 | 11.0 | 13.0 | 0.00 | 0.00 | 0.00 | 39 | 1017.4 |
| 20260506174911 | 52 | 106 | 5.0 | 7.0 | 0.00 | 0.00 | 0.00 | 42 | 1017.5 |
| 20260506174408 | 51 | 86 | 11.0 | 14.0 | 0.00 | 0.00 | 0.00 | 40 | 1017.5 |
| 20260506173906 | 51 | 60 | 11.0 | 14.0 | 0.00 | 0.00 | 0.00 | 42 | 1017.7 |
| 20260506173402 | 51 | 90 | 8.0 | 9.0 | 0.00 | 0.00 | 0.00 | 42 | 1017.6 |
| 20260506172900 | 51 | 67 | 11.0 | 13.0 | 0.00 | 0.00 | 0.00 | 44 | 1017.6 |
| 20260506172356 | 50 | 40 | 3.0 | 7.0 | 0.00 | 0.00 | 0.00 | 45 | 1017.8 |
| 20260506171853 | 50 | 51 | 5.0 | 7.0 | 0.00 | 0.00 | 0.00 | 46 | 1017.7 |
| 20260506171350 | 49 | 43 | 7.0 | 10.0 | 0.00 | 0.00 | 0.00 | 48 | 1018.0 |
| 20260506170848 | 50 | 125 | 9.0 | 9.0 | 0.00 | 0.00 | 0.00 | 43 | 1018.2 |
| 20260506170343 | 49 | 57 | 6.0 | 8.0 | 0.00 | 0.00 | 0.00 | 47 | 1018.0 |
| 20260506165838 | 49 | 100 | 5.0 | 7.0 | 0.00 | 0.00 | 0.00 | 46 | 1018.2 |
| 20260506165335 | 49 | 56 | 7.0 | 9.0 | 0.00 | 0.00 | 0.00 | 46 | 1018.3 |
| 20260506164831 | 49 | 87 | 8.0 | 9.0 | 0.00 | 0.00 | 0.00 | 44 | 1018.4 |
| 20260506164328 | 47 | 91 | 5.0 | 6.0 | 0.00 | 0.00 | 0.00 | 48 | 1018.5 |
| 20260506163825 | 48 | 39 | 5.0 | 7.0 | 0.00 | 0.00 | 0.00 | 46 | 1018.5 |
| 20260506163320 | 47 | 113 | 8.0 | 9.0 | 0.00 | 0.00 | 0.00 | 49 | 1018.7 |
| 20260506162816 | 47 | 45 | 3.0 | 5.0 | 0.00 | 0.00 | 0.00 | 51 | 1018.9 |
| 20260506162314 | 46 | 50 | 5.0 | 6.0 | 0.00 | 0.00 | 0.00 | 52 | 1018.9 |
| 20260506161811 | 46 | 73 | 7.0 | 9.0 | 0.00 | 0.00 | 0.00 | 53 | 1018.9 |
| 20260506161308 | 46 | 39 | 2.0 | 2.0 | 0.00 | 0.00 | 0.00 | 53 | 1019.2 |
| 20260506160805 | 45 | 40 | 1.0 | 2.0 | 0.00 | 0.00 | 0.00 | 55 | 1019.2 |
| 20260506160302 | 45 | 35 | 3.0 | 5.0 | 0.00 | 0.00 | 0.00 | 55 | 1019.1 |
| 20260506155801 | 44 | 104 | 2.0 | 2.0 | 0.00 | 0.00 | 0.00 | 56 | 1019.3 |
| 20260506155256 | 44 | 132 | 3.0 | 3.0 | 0.00 | 0.00 | 0.00 | 54 | 1019.3 |
| 20260506153404 | 43 | 57 | 2.0 | 2.0 | 0.00 | 0.00 | 0.00 | 58 | 1019.7 |
| 20260506152901 | 43 | 85 | 0.0 | 1.0 | 0.00 | 0.00 | 0.00 | 60 | 1019.6 |
| 20260506152358 | 41 | 170 | 0.0 | 0.0 | 0.00 | 0.00 | 0.00 | 61 | 1019.7 |
| 20260506151857 | 41 | 315 | 1.0 | 1.0 | 0.00 | 0.00 | 0.00 | 63 | 1019.8 |
| 20260506151353 | 41 | 58 | 3.0 | 3.0 | 0.00 | 0.00 | 0.00 | 63 | 1019.9 |
| 20260506150851 | 39 | 185 | 1.0 | 2.0 | 0.00 | 0.00 | 0.00 | 65 | 1020.1 |
| 20260506150347 | 39 | 185 | 2.0 | 2.0 | 0.00 | 0.00 | 0.00 | 66 | 1020.1 |
| 20260506145844 | 39 | 184 | 1.0 | 2.0 | 0.00 | 0.00 | 0.00 | 65 | 1020.1 |
| 20260506145340 | 38 | 183 | 2.0 | 2.0 | 0.00 | 0.00 | 0.00 | 67 | 1020.2 |
| 20260506144838 | 37 | 183 | 2.0 | 2.0 | 0.00 | 0.00 | 0.00 | 68 | 1020.2 |
| 20260506144334 | 36 | 198 | 2.0 | 3.0 | 0.00 | 0.00 | 0.00 | 70 | 1020.2 |
| 20260506143833 | 35 | 214 | 2.0 | 2.0 | 0.00 | 0.00 | 0.00 | 71 | 1020.3 |
| 20260506143329 | 36 | 217 | 0.0 | 1.0 | 0.00 | 0.00 | 0.00 | 71 | 1020.3 |
| 20260506142828 | 35 | 218 | 0.0 | 0.0 | 0.00 | 0.00 | 0.00 | 73 | 1020.3 |
| 20260506142325 | 34 | 224 | 0.0 | 0.0 | 0.00 | 0.00 | 0.00 | 74 | 1020.5 |
| 20260506141823 | 33 | 224 | 2.0 | 2.0 | 0.00 | 0.00 | 0.00 | 76 | 1020.7 |
| 20260506141321 | 33 | 230 | 2.0 | 2.0 | 0.00 | 0.00 | 0.00 | 76 | 1020.5 |
| 20260506140819 | 33 | 254 | 0.0 | 0.0 | 0.00 | 0.00 | 0.00 | 76 | 1020.8 |
| 20260506140315 | 33 | 254 | 1.0 | 1.0 | 0.00 | 0.00 | 0.00 | 75 | 1020.8 |
| 20260506135813 | 34 | 258 | 0.0 | 0.0 | 0.00 | 0.00 | 0.00 | 74 | 1020.8 |
| 20260506135309 | 33 | 263 | 0.0 | 0.0 | 0.00 | 0.00 | 0.00 | 76 | 1020.7 |
| 20260506134806 | 31 | 262 | 0.0 | 1.0 | 0.00 | 0.00 | 0.00 | 80 | 1020.8 |
| 20260506134302 | 30 | 263 | 0.0 | 0.0 | 0.00 | 0.00 | 0.00 | 81 | 1020.9 |
| 20260506133759 | 29 | 278 | 0.0 | 0.0 | 0.00 | 0.00 | 0.00 | 83 | 1020.7 |
| 20260506133256 | 29 | 281 | 0.0 | 1.0 | 0.00 | 0.00 | 0.00 | 83 | 1020.7 |
| 20260506132753 | 29 | 278 | 0.0 | 1.0 | 0.00 | 0.00 | 0.00 | 84 | 1020.7 |
| 20260506132250 | 28 | 280 | 1.0 | 1.0 | 0.00 | 0.00 | 0.00 | 85 | 1020.6 |
| 20260506131748 | 28 | 320 | 2.0 | 2.0 | 0.00 | 0.00 | 0.00 | 85 | 1020.7 |
| 20260506131243 | 28 | 5 | 1.0 | 1.0 | 0.00 | 0.00 | 0.00 | 85 | 1020.5 |
| 20260506130740 | 27 | 329 | 1.0 | 2.0 | 0.00 | 0.00 | 0.00 | 86 | 1020.6 |
| 20260506130237 | 27 | 347 | 1.0 | 1.0 | 0.00 | 0.00 | 0.00 | 85 | 1020.7 |
| 20260506125735 | 26 | 5 | 0.0 | 0.0 | 0.00 | 0.00 | 0.00 | 85 | 1020.5 |
| 20260506125233 | 26 | 2 | 0.0 | 0.0 | 0.00 | 0.00 | 0.00 | 84 | 1020.5 |
| 20260506124731 | 26 | 357 | 0.0 | 0.0 | 0.00 | 0.00 | 0.00 | 83 | 1020.5 |
| 20260506124229 | 26 | 2 | 0.0 | 0.0 | 0.00 | 0.00 | 0.00 | 84 | 1020.4 |
| 20260506123726 | 25 | 2 | 0.0 | 0.0 | 0.00 | 0.00 | 0.00 | 85 | 1020.4 |
| 20260506123225 | 24 | 0 | 0.0 | 0.0 | 0.00 | 0.00 | 0.00 | 86 | 1020.4 |
| 20260506122721 | 24 | 17 | 1.0 | 1.0 | 0.00 | 0.00 | 0.00 | 87 | 1020.3 |
| 20260506122218 | 23 | 42 | 0.0 | 0.0 | 0.00 | 0.00 | 0.00 | 87 | 1020.4 |
| 20260506121716 | 23 | 43 | 0.0 | 0.0 | 0.00 | 0.00 | 0.00 | 87 | 1020.4 |
| 20260506121212 | 23 | 54 | 0.0 | 0.0 | 0.00 | 0.00 | 0.00 | 87 | 1020.4 |
| 20260506120710 | 23 | 58 | 0.0 | 0.0 | 0.00 | 0.00 | 0.00 | 86 | 1020.4 |
| 20260506120208 | 23 | 44 | 0.0 | 0.0 | 0.00 | 0.00 | 0.00 | 85 | 1020.3 |
| 20260506115706 | 25 | 60 | 1.0 | 1.0 | 0.00 | 0.00 | 0.00 | 84 | 1020.4 |
| 20260506115204 | 25 | 81 | 0.0 | 0.0 | 0.00 | 0.00 | 0.00 | 84 | 1020.4 |
| 20260506114701 | 26 | 100 | 0.0 | 0.0 | 0.00 | 0.00 | 0.00 | 82 | 1020.4 |
| 20260506114158 | 26 | 148 | 1.0 | 1.0 | 0.00 | 0.00 | 0.00 | 82 | 1020.3 |
| 20260506113657 | 27 | 168 | 1.0 | 1.0 | 0.00 | 0.00 | 0.00 | 82 | 1020.4 |
| 20260506113154 | 26 | 147 | 1.0 | 1.0 | 0.00 | 0.00 | 0.00 | 82 | 1020.2 |
| 20260506112649 | 27 | 142 | 2.0 | 2.0 | 0.00 | 0.00 | 0.00 | 82 | 1020.4 |
| 20260506112148 | 26 | 142 | 2.0 | 2.0 | 0.00 | 0.00 | 0.00 | 83 | 1020.4 |
| 20260506111645 | 26 | 115 | 0.0 | 0.0 | 0.00 | 0.00 | 0.00 | 84 | 1020.3 |
| 20260506111143 | 26 | 87 | 1.0 | 1.0 | 0.00 | 0.00 | 0.00 | 84 | 1020.3 |
| 20260506110640 | 26 | 57 | 0.0 | 0.0 | 0.00 | 0.00 | 0.00 | 84 | 1020.5 |
| 20260506110137 | 26 | 56 | 0.0 | 0.0 | 0.00 | 0.00 | 0.00 | 84 | 1020.5 |
| 20260506105633 | 25 | 56 | 0.0 | 1.0 | 0.00 | 0.00 | 0.00 | 84 | 1020.5 |
| 20260506105130 | 26 | 45 | 1.0 | 1.0 | 0.00 | 0.00 | 0.00 | 83 | 1020.7 |
| 20260506104629 | 26 | 37 | 0.0 | 0.0 | 0.00 | 0.00 | 0.00 | 84 | 1020.6 |
| 20260506104126 | 25 | 51 | 0.0 | 0.0 | 0.00 | 0.00 | 0.00 | 84 | 1020.6 |
| 20260506103623 | 25 | 84 | 0.0 | 0.0 | 0.00 | 0.00 | 0.00 | 84 | 1020.7 |
| 20260506103120 | 26 | 100 | 1.0 | 2.0 | 0.00 | 0.00 | 0.00 | 85 | 1020.7 |
| 20260506102618 | 25 | 60 | 0.0 | 0.0 | 0.00 | 0.00 | 0.00 | 86 | 1020.6 |
| 20260506102115 | 26 | 74 | 0.0 | 0.0 | 0.00 | 0.00 | 0.00 | 84 | 1020.6 |
| 20260506101612 | 26 | 98 | 0.0 | 0.0 | 0.00 | 0.00 | 0.00 | 84 | 1020.5 |
| 20260506101108 | 26 | 98 | 0.0 | 0.0 | 0.00 | 0.00 | 0.00 | 85 | 1020.8 |
| 20260506100607 | 26 | 98 | 1.0 | 1.0 | 0.00 | 0.00 | 0.00 | 84 | 1020.5 |
| 20260506100105 | 26 | 359 | 2.0 | 2.0 | 0.00 | 0.00 | 0.00 | 85 | 1020.8 |
| 20260506095604 | 26 | 20 | 0.0 | 0.0 | 0.00 | 0.00 | 0.00 | 84 | 1020.8 |
| 20260506095100 | 26 | 45 | 0.0 | 0.0 | 0.00 | 0.00 | 0.00 | 82 | 1020.9 |
| 20260506094557 | 27 | 86 | 0.0 | 0.0 | 0.00 | 0.00 | 0.00 | 81 | 1020.7 |
| 20260506094055 | 27 | 104 | 1.0 | 1.0 | 0.00 | 0.00 | 0.00 | 83 | 1020.7 |
| 20260506093553 | 27 | 104 | 1.0 | 1.0 | 0.00 | 0.00 | 0.00 | 83 | 1020.7 |
| 20260506093051 | 28 | 158 | 1.0 | 1.0 | 0.00 | 0.00 | 0.00 | 83 | 1020.7 |
| 20260506092548 | 27 | 158 | 1.0 | 1.0 | 0.00 | 0.00 | 0.00 | 83 | 1020.8 |
| 20260506092045 | 27 | 158 | 2.0 | 2.0 | 0.00 | 0.00 | 0.00 | 83 | 1020.9 |
| 20260506091543 | 27 | 79 | 0.0 | 0.0 | 0.00 | 0.00 | 0.00 | 83 | 1020.8 |
| 20260506091039 | 27 | 79 | 0.0 | 0.0 | 0.00 | 0.00 | 0.00 | 82 | 1020.9 |
| 20260506090538 | 27 | 79 | 0.0 | 0.0 | 0.00 | 0.00 | 0.00 | 84 | 1020.9 |
| 20260506090034 | 26 | 78 | 1.0 | 1.0 | 0.00 | 0.00 | 0.00 | 85 | 1020.7 |
| 20260506085531 | 27 | 78 | 0.0 | 0.0 | 0.00 | 0.00 | 0.00 | 84 | 1020.8 |
| 20260506085027 | 28 | 78 | 0.0 | 0.0 | 0.00 | 0.00 | 0.00 | 82 | 1021.1 |
| 20260506084525 | 28 | 97 | 0.0 | 0.0 | 0.00 | 0.00 | 0.00 | 82 | 1021.1 |
| 20260506084020 | 28 | 97 | 1.0 | 1.0 | 0.00 | 0.00 | 0.00 | 83 | 1021.1 |
| 20260506083517 | 27 | 98 | 2.0 | 2.0 | 0.00 | 0.00 | 0.00 | 84 | 1021.2 |
| 20260506083015 | 27 | 67 | 1.0 | 1.0 | 0.00 | 0.00 | 0.00 | 84 | 1020.9 |
| 20260506082512 | 27 | 97 | 0.0 | 0.0 | 0.00 | 0.00 | 0.00 | 82 | 1021.3 |
| 20260506082007 | 28 | 97 | 0.0 | 0.0 | 0.00 | 0.00 | 0.00 | 80 | 1020.9 |
| 20260506081506 | 28 | 97 | 0.0 | 0.0 | 0.00 | 0.00 | 0.00 | 80 | 1021.2 |
| 20260506081003 | 29 | 97 | 0.0 | 0.0 | 0.00 | 0.00 | 0.00 | 79 | 1021.2 |
| 20260506080500 | 28 | 97 | 0.0 | 0.0 | 0.00 | 0.00 | 0.00 | 80 | 1021.1 |
| 20260506073443 | 31 | 98 | 1.0 | 2.0 | 0.00 | 0.00 | 0.00 | 75 | 1021.2 |
| 20260506072941 | 32 | 97 | 0.0 | 0.0 | 0.00 | 0.00 | 0.00 | 74 | 1021.3 |
| 20260506072438 | 31 | 97 | 1.0 | 1.0 | 0.00 | 0.00 | 0.00 | 75 | 1021.4 |
| 20260506071936 | 30 | 104 | 5.0 | 5.0 | 0.00 | 0.00 | 0.00 | 77 | 1021.4 |
| 20260506071433 | 32 | 261 | 0.0 | 0.0 | 0.00 | 0.00 | 0.00 | 73 | 1021.5 |
| 20260506070930 | 32 | 261 | 2.0 | 2.0 | 0.00 | 0.00 | 0.00 | 72 | 1021.5 |
| 20260506070427 | 32 | 212 | 2.0 | 2.0 | 0.00 | 0.00 | 0.00 | 74 | 1021.5 |
| 20260506062405 | 33 | 154 | 0.0 | 1.0 | 0.00 | 0.00 | 0.00 | 71 | 1021.5 |
| 20260506061900 | 33 | 154 | 1.0 | 1.0 | 0.00 | 0.00 | 0.00 | 72 | 1021.4 |
| 20260506061357 | 32 | 208 | 2.0 | 2.0 | 0.00 | 0.00 | 0.00 | 74 | 1021.4 |
| 20260506060855 | 33 | 210 | 3.0 | 3.0 | 0.00 | 0.00 | 0.00 | 72 | 1021.2 |
| 20260506060353 | 32 | 205 | 2.0 | 2.0 | 0.00 | 0.00 | 0.00 | 72 | 1021.4 |
| 20260506051325 | 35 | 173 | 0.0 | 0.0 | 0.00 | 0.00 | 0.00 | 70 | 1021.3 |
| 20260506050823 | 35 | 173 | 0.0 | 0.0 | 0.00 | 0.00 | 0.00 | 69 | 1021.1 |
| 20260506050320 | 36 | 173 | 0.0 | 0.0 | 0.00 | 0.00 | 0.00 | 67 | 1021.1 |
| 20260506044810 | 35 | 172 | 0.0 | 1.0 | 0.00 | 0.00 | 0.00 | 68 | 1021.2 |
| 20260506044308 | 36 | 176 | 2.0 | 2.0 | 0.00 | 0.00 | 0.00 | 67 | 1021.3 |
| 20260506043805 | 35 | 93 | 2.0 | 2.0 | 0.00 | 0.00 | 0.00 | 69 | 1021.2 |
| 20260506043302 | 36 | 21 | 1.0 | 1.0 | 0.00 | 0.00 | 0.00 | 68 | 1020.9 |
| 20260506042801 | 35 | 33 | 1.0 | 1.0 | 0.00 | 0.00 | 0.00 | 70 | 1021.2 |
| 20260506042259 | 37 | 339 | 0.0 | 1.0 | 0.00 | 0.00 | 0.00 | 64 | 1021.2 |
| 20260506041757 | 37 | 338 | 1.0 | 1.0 | 0.00 | 0.00 | 0.00 | 64 | 1021.3 |
| 20260506041254 | 38 | 341 | 2.0 | 2.0 | 0.00 | 0.00 | 0.00 | 64 | 1021.2 |
| 20260506040751 | 39 | 299 | 3.0 | 3.0 | 0.00 | 0.00 | 0.00 | 62 | 1021.3 |
| 20260506040248 | 39 | 284 | 3.0 | 3.0 | 0.00 | 0.00 | 0.00 | 62 | 1021.2 |
| 20260506035745 | 39 | 291 | 3.0 | 3.0 | 0.00 | 0.00 | 0.00 | 62 | 1021.2 |
| 20260506035242 | 39 | 299 | 4.0 | 5.0 | 0.00 | 0.00 | 0.00 | 61 | 1021.3 |
| 20260506034738 | 40 | 303 | 3.0 | 3.0 | 0.00 | 0.00 | 0.00 | 60 | 1021.3 |
| 20260506034235 | 40 | 300 | 5.0 | 5.0 | 0.00 | 0.00 | 0.00 | 59 | 1021.3 |
| 20260506033727 | 40 | 284 | 5.0 | 7.0 | 0.00 | 0.00 | 0.00 | 59 | 1021.1 |
| 20260506033224 | 39 | 291 | 4.0 | 5.0 | 0.00 | 0.00 | 0.00 | 60 | 1021.1 |
| 20260506032721 | 39 | 280 | 5.0 | 7.0 | 0.00 | 0.00 | 0.00 | 60 | 1021.2 |
| 20260506032218 | 39 | 256 | 5.0 | 6.0 | 0.00 | 0.00 | 0.00 | 60 | 1021.1 |
| 20260506031715 | 40 | 266 | 5.0 | 6.0 | 0.00 | 0.00 | 0.00 | 59 | 1020.9 |
| 20260506031212 | 40 | 292 | 5.0 | 5.0 | 0.00 | 0.00 | 0.00 | 58 | 1021.1 |
| 20260506030710 | 40 | 275 | 4.0 | 5.0 | 0.00 | 0.00 | 0.00 | 58 | 1020.9 |
| 20260506030207 | 41 | 264 | 5.0 | 6.0 | 0.00 | 0.00 | 0.00 | 56 | 1020.8 |
| 20260506025704 | 41 | 287 | 5.0 | 6.0 | 0.00 | 0.00 | 0.00 | 56 | 1020.5 |
| 20260506025200 | 41 | 278 | 5.0 | 7.0 | 0.00 | 0.00 | 0.00 | 55 | 1020.5 |
| 20260506024658 | 41 | 291 | 5.0 | 7.0 | 0.00 | 0.00 | 0.00 | 55 | 1020.5 |
| 20260506024154 | 42 | 298 | 5.0 | 7.0 | 0.00 | 0.00 | 0.00 | 55 | 1020.4 |
| 20260506023650 | 42 | 309 | 4.0 | 5.0 | 0.00 | 0.00 | 0.00 | 54 | 1020.4 |
| 20260506023148 | 43 | 308 | 5.0 | 6.0 | 0.00 | 0.00 | 0.00 | 53 | 1020.3 |
| 20260506022645 | 43 | 353 | 4.0 | 5.0 | 0.00 | 0.00 | 0.00 | 51 | 1020.3 |
| 20260506022142 | 44 | 344 | 5.0 | 7.0 | 0.00 | 0.00 | 0.00 | 50 | 1020.4 |
| 20260506021640 | 44 | 320 | 7.0 | 8.0 | 0.00 | 0.00 | 0.00 | 49 | 1020.2 |
| 20260506021137 | 45 | 305 | 7.0 | 10.0 | 0.00 | 0.00 | 0.00 | 48 | 1020.1 |
| 20260506020634 | 45 | 347 | 7.0 | 8.0 | 0.00 | 0.00 | 0.00 | 48 | 1019.8 |
| 20260506020131 | 46 | 351 | 4.0 | 5.0 | 0.00 | 0.00 | 0.00 | 47 | 1020.1 |
| 20260506015629 | 46 | 358 | 8.0 | 9.0 | 0.00 | 0.00 | 0.00 | 47 | 1020.1 |
| 20260506015126 | 46 | 327 | 5.0 | 7.0 | 0.00 | 0.00 | 0.00 | 47 | 1019.9 |
| 20260506014623 | 46 | 352 | 7.0 | 8.0 | 0.00 | 0.00 | 0.00 | 47 | 1020.1 |
| 20260506014118 | 47 | 310 | 5.0 | 6.0 | 0.00 | 0.00 | 0.00 | 46 | 1019.9 |
| 20260506013617 | 47 | 324 | 7.0 | 10.0 | 0.00 | 0.00 | 0.00 | 46 | 1019.9 |
| 20260506013113 | 46 | 282 | 6.0 | 7.0 | 0.00 | 0.00 | 0.00 | 48 | 1019.9 |
| 20260506012610 | 46 | 315 | 6.0 | 7.0 | 0.00 | 0.00 | 0.00 | 48 | 1020.1 |
| 20260506012106 | 46 | 304 | 11.0 | 13.0 | 0.00 | 0.00 | 0.00 | 47 | 1019.8 |
| 20260506011604 | 46 | 314 | 6.0 | 7.0 | 0.00 | 0.00 | 0.00 | 48 | 1019.9 |
| 20260506011059 | 46 | 344 | 5.0 | 7.0 | 0.00 | 0.00 | 0.00 | 48 | 1019.9 |
| 20260506010554 | 46 | 334 | 9.0 | 11.0 | 0.00 | 0.00 | 0.00 | 47 | 1019.8 |
| 20260506010050 | 47 | 327 | 7.0 | 9.0 | 0.00 | 0.00 | 0.00 | 48 | 1019.7 |
| 20260506005547 | 48 | 278 | 9.0 | 10.0 | 0.00 | 0.00 | 0.00 | 47 | 1019.5 |
| 20260506005043 | 48 | 284 | 7.0 | 13.0 | 0.00 | 0.00 | 0.00 | 47 | 1019.6 |
| 20260506004541 | 48 | 337 | 7.0 | 9.0 | 0.00 | 0.00 | 0.00 | 47 | 1019.6 |
| 20260506004037 | 48 | 352 | 4.0 | 7.0 | 0.00 | 0.00 | 0.00 | 48 | 1019.5 |
| 20260506003534 | 48 | 322 | 6.0 | 9.0 | 0.00 | 0.00 | 0.00 | 46 | 1019.4 |
| 20260506003030 | 48 | 316 | 7.0 | 9.0 | 0.00 | 0.00 | 0.00 | 47 | 1019.7 |
| 20260506002526 | 48 | 351 | 7.0 | 10.0 | 0.00 | 0.00 | 0.00 | 47 | 1019.5 |
| 20260506002022 | 48 | 299 | 7.0 | 9.0 | 0.00 | 0.00 | 0.00 | 46 | 1019.6 |
| 20260506001518 | 49 | 314 | 7.0 | 9.0 | 0.00 | 0.00 | 0.00 | 45 | 1019.2 |
| 20260506001016 | 49 | 358 | 9.0 | 11.0 | 0.00 | 0.00 | 0.00 | 44 | 1019.5 |
| 20260506000514 | 49 | 256 | 8.0 | 11.0 | 0.00 | 0.00 | 0.00 | 44 | 1019.4 |
| 20260506000011 | 49 | 312 | 9.0 | 10.0 | 0.00 | 0.00 | 0.00 | 43 | 1019.3 |
| 20260505235508 | 49 | 36 | 8.0 | 10.0 | 0.00 | 0.00 | 0.00 | 44 | 1019.5 |
| 20260505235004 | 49 | 12 | 7.0 | 9.0 | 0.00 | 0.00 | 0.00 | 44 | 1019.2 |
| 20260505234502 | 49 | 6 | 4.0 | 5.0 | 0.00 | 0.00 | 0.00 | 43 | 1019.2 |
| 20260505233959 | 47 | 293 | 6.0 | 8.0 | 0.00 | 0.00 | 0.00 | 46 | 1019.3 |
| 20260505233456 | 47 | 313 | 7.0 | 10.0 | 0.00 | 0.00 | 0.00 | 48 | 1019.4 |
| 20260505232953 | 47 | 44 | 3.0 | 5.0 | 0.00 | 0.00 | 0.00 | 47 | 1019.3 |